�������l�o���
Date,Time,MP-1(��Sv/h),MP-2(��Sv/h),MP-3(��Sv/h),MP-4(��Sv/h),MP-5(��Sv/h),MP-6(��Sv/h),MP-7(��Sv/h),MP-8(��Sv/h),����,����(m/s),���J
2020/02/07,00:00,0.697,1.012,0.654,1.257,0.876,0.399,0.704,0.668,���쐼,6.3,��
2020/02/07,00:10,0.698,1.013,0.656,1.258,0.874,0.399,0.703,0.666,���쐼,7.1,��
2020/02/07,00:20,0.697,1.011,0.656,1.260,0.877,0.399,0.703,0.668,���쐼,4.9,��
2020/02/07,00:30,0.696,1.009,0.654,1.259,0.875,0.398,0.701,0.668,���쐼,4.9,��
2020/02/07,00:40,0.695,1.015,0.654,1.257,0.874,0.398,0.701,0.666,���쐼,6.1,��
2020/02/07,00:50,0.699,1.013,0.655,1.257,0.872,0.398,0.700,0.666,���쐼,6.3,��
2020/02/07,01:00,0.697,1.011,0.654,1.259,0.875,0.399,0.702,0.668,���쐼,7.4,��
2020/02/07,01:10,0.697,1.011,0.655,1.258,0.876,0.400,0.703,0.668,��,6.3,��
2020/02/07,01:20,0.697,1.012,0.656,1.257,0.875,0.399,0.701,0.666,��,5.3,��
2020/02/07,01:30,0.697,1.013,0.655,1.258,0.874,0.399,0.701,0.668,��,3.8,��
2020/02/07,01:40,0.696,1.013,0.655,1.258,0.876,0.399,0.703,0.668,��,4.4,��
2020/02/07,01:50,0.698,1.010,0.656,1.257,0.875,0.399,0.702,0.666,��,5.5,��
2020/02/07,02:00,0.696,1.014,0.655,1.257,0.875,0.400,0.703,0.668,��,6.4,��
2020/02/07,02:10,0.697,1.012,0.654,1.259,0.877,0.400,0.703,0.666,��,5.8,��
2020/02/07,02:20,0.697,1.014,0.655,1.259,0.877,0.399,0.702,0.668,��,6.0,��
2020/02/07,02:30,0.695,1.011,0.657,1.258,0.875,0.399,0.702,0.667,��,5.8,��
2020/02/07,02:40,0.698,1.013,0.655,1.258,0.874,0.400,0.701,0.667,��,4.1,��
2020/02/07,02:50,0.696,1.011,0.656,1.259,0.875,0.397,0.702,0.668,��,3.5,��
2020/02/07,03:00,0.696,1.013,0.655,1.257,0.876,0.399,0.701,0.669,��,1.8,��
2020/02/07,03:10,0.697,1.012,0.656,1.257,0.873,0.398,0.702,0.666,���쐼,1.7,��
2020/02/07,03:20,0.695,1.013,0.653,1.256,0.876,0.399,0.700,0.667,��,2.4,��
2020/02/07,03:30,0.696,1.013,0.655,1.257,0.874,0.398,0.703,0.668,��,2.9,��
2020/02/07,03:40,0.695,1.013,0.655,1.258,0.875,0.398,0.704,0.666,��,2.6,��
2020/02/07,03:50,0.696,1.013,0.655,1.254,0.874,0.400,0.704,0.667,��,2.6,��
2020/02/07,04:00,0.696,1.012,0.654,1.257,0.875,0.398,0.701,0.667,��,2.8,��
2020/02/07,04:10,0.697,1.012,0.656,1.257,0.875,0.400,0.700,0.668,���k��,2.7,��
2020/02/07,04:20,0.697,1.010,0.654,1.259,0.873,0.398,0.702,0.667,���k��,2.3,��
2020/02/07,04:30,0.695,1.013,0.656,1.256,0.874,0.398,0.702,0.665,��,2.1,��
2020/02/07,04:40,0.697,1.009,0.654,1.256,0.874,0.399,0.701,0.667,��,2.3,��
2020/02/07,04:50,0.698,1.011,0.653,1.256,0.875,0.399,0.702,0.667,��,3.3,��
2020/02/07,05:00,0.694,1.010,0.656,1.257,0.874,0.399,0.702,0.665,��,3.3,��
2020/02/07,05:10,0.697,1.010,0.655,1.257,0.873,0.398,0.701,0.666,���쐼,3.9,��
2020/02/07,05:20,0.696,1.013,0.653,1.256,0.872,0.397,0.700,0.665,���쐼,4.4,��
2020/02/07,05:30,0.699,1.011,0.654,1.258,0.873,0.398,0.702,0.667,���쐼,5.2,��
2020/02/07,05:40,0.696,1.012,0.654,1.257,0.872,0.398,0.700,0.668,���쐼,4.7,��
2020/02/07,05:50,0.694,1.010,0.653,1.257,0.873,0.398,0.701,0.666,�쐼,4.4,��
2020/02/07,06:00,0.696,1.012,0.655,1.258,0.872,0.400,0.703,0.667,���쐼,4.1,��
2020/02/07,06:10,0.693,1.012,0.655,1.256,0.873,0.398,0.702,0.667,���쐼,4.6,��
2020/02/07,06:20,0.695,1.010,0.654,1.257,0.872,0.398,0.701,0.667,���쐼,6.3,��
2020/02/07,06:30,0.695,1.010,0.653,1.256,0.873,0.397,0.701,0.666,���쐼,5.2,��
2020/02/07,06:40,0.696,1.008,0.655,1.256,0.873,0.399,0.702,0.668,���쐼,4.9,��
2020/02/07,06:50,0.697,1.009,0.653,1.256,0.870,0.398,0.702,0.668,���쐼,3.9,��
2020/02/07,07:00,0.697,1.011,0.656,1.258,0.871,0.397,0.702,0.666,���쐼,3.8,��
2020/02/07,07:10,0.697,1.012,0.654,1.255,0.874,0.398,0.701,0.668,���쐼,6.7,��
2020/02/07,07:20,0.697,1.009,0.653,1.258,0.871,0.399,0.703,0.667,���쐼,7.4,��
2020/02/07,07:30,0.696,1.011,0.653,1.258,0.873,0.400,0.701,0.667,���쐼,7.2,��
2020/02/07,07:40,0.698,1.010,0.655,1.258,0.873,0.398,0.704,0.667,���쐼,7.4,��
2020/02/07,07:50,0.698,1.010,0.654,1.257,0.873,0.399,0.703,0.667,���쐼,7.1,��
2020/02/07,08:00,0.699,1.009,0.656,1.256,0.874,0.399,0.702,0.669,���쐼,4.7,��
2020/02/07,08:10,0.697,1.010,0.655,1.257,0.877,0.400,0.703,0.667,���쐼,4.9,��
2020/02/07,08:20,0.698,1.011,0.653,1.258,0.875,0.399,0.702,0.668,��,3.9,��
2020/02/07,08:30,0.698,1.010,0.655,1.257,0.874,0.400,0.704,0.669,��,4.2,��
2020/02/07,08:40,0.699,1.011,0.655,1.256,0.875,0.400,0.703,0.666,���쐼,4.3,��
2020/02/07,08:50,0.698,1.010,0.655,1.259,0.875,0.400,0.704,0.667,���쐼,4.1,��
2020/02/07,09:00,0.698,1.010,0.655,1.259,0.873,0.399,0.704,0.668,���쐼,3.8,��
2020/02/07,09:10,0.699,1.008,0.654,1.257,0.874,0.399,0.704,0.668,�쐼,4.2,��
2020/02/07,09:20,0.700,1.007,0.654,1.259,0.874,0.400,0.703,0.667,�쐼,3.9,��
2020/02/07,09:30,0.700,1.009,0.653,1.259,0.876,0.401,0.704,0.667,���쐼,5.0,��
2020/02/07,09:40,0.699,1.010,0.653,1.257,0.876,0.400,0.703,0.669,���쐼,5.0,��
2020/02/07,09:50,0.701,1.010,0.652,1.257,0.877,0.401,0.703,0.669,��,5.8,��
2020/02/07,10:00,0.700,1.009,0.649,1.258,0.875,0.402,0.703,0.667,���쐼,3.1,��
2020/02/07,10:10,0.699,1.011,0.651,1.259,0.875,0.400,0.704,0.667,���쐼,3.4,��
2020/02/07,10:20,0.700,1.010,0.652,1.259,0.877,0.400,0.703,0.669,���쐼,5.5,��
2020/02/07,10:30,0.702,1.010,0.653,1.259,0.876,0.399,0.701,0.669,���쐼,5.8,��
2020/02/07,10:40,0.700,1.008,0.652,1.259,0.875,0.399,0.704,0.670,�쐼,6.1,��
2020/02/07,10:50,0.698,1.010,0.650,1.261,0.875,0.401,0.703,0.668,���쐼,5.2,��
2020/02/07,11:00,0.703,1.007,0.650,1.258,0.877,0.400,0.702,0.669,��,5.3,��
2020/02/07,11:10,0.704,1.009,0.652,1.259,0.879,0.401,0.703,0.670,��,4.2,��
2020/02/07,11:20,0.702,1.008,0.654,1.261,0.877,0.402,0.702,0.669,���k��,2.6,��
2020/02/07,11:30,0.701,1.009,0.655,1.258,0.878,0.402,0.703,0.669,���쐼,2.1,��
2020/02/07,11:40,0.700,1.007,0.652,1.261,0.878,0.400,0.704,0.669,���쐼,5.3,��
2020/02/07,11:50,0.698,1.008,0.651,1.261,0.878,0.404,0.703,0.670,��,4.2,��
2020/02/07,12:00,0.701,1.007,0.651,1.261,0.880,0.401,0.703,0.670,��,3.9,��
2020/02/07,12:10,0.701,1.010,0.652,1.262,0.882,0.402,0.703,0.669,���쐼,4.6,��
2020/02/07,12:20,0.703,1.011,0.657,1.262,0.881,0.402,0.703,0.670,��,4.5,��
2020/02/07,12:30,0.701,1.013,0.658,1.262,0.882,0.400,0.704,0.671,���k��,4.5,��
2020/02/07,12:40,0.703,1.013,0.658,1.263,0.879,0.401,0.703,0.671,���k��,4.3,��
2020/02/07,12:50,0.703,1.013,0.657,1.261,0.881,0.402,0.704,0.671,���k��,3.8,��
2020/02/07,13:00,0.703,1.013,0.658,1.262,0.879,0.400,0.702,0.669,��,6.0,��
2020/02/07,13:10,0.703,1.012,0.658,1.262,0.879,0.400,0.703,0.670,���쐼,3.6,��
2020/02/07,13:20,0.704,1.012,0.658,1.264,0.881,0.401,0.704,0.670,��,6.3,��
2020/02/07,13:30,0.703,1.012,0.659,1.262,0.879,0.400,0.704,0.670,�쐼,6.9,��
2020/02/07,13:40,0.703,1.013,0.657,1.259,0.880,0.402,0.702,0.671,��,6.1,��
2020/02/07,13:50,0.704,1.012,0.651,1.260,0.881,0.401,0.706,0.671,���k��,8.2,��
2020/02/07,14:00,0.702,1.012,0.651,1.263,0.880,0.401,0.704,0.668,���k��,6.4,��
2020/02/07,14:10,0.702,1.012,0.651,1.263,0.880,0.402,0.704,0.667,���k��,6.7,��
2020/02/07,14:20,0.703,1.012,0.651,1.260,0.882,0.402,0.705,0.670,��,7.4,��
2020/02/07,14:30,0.703,1.011,0.654,1.264,0.883,0.403,0.707,0.668,���쐼,5.6,��
2020/02/07,14:40,0.704,1.012,0.652,1.261,0.880,0.402,0.706,0.667,��,6.6,��
2020/02/07,14:50,0.705,1.015,0.653,1.261,0.881,0.402,0.708,0.668,��,6.7,��
2020/02/07,15:00,0.704,1.012,0.652,1.262,0.881,0.402,0.706,0.668,��,6.9,��
2020/02/07,15:10,0.706,1.012,0.655,1.262,0.880,0.401,0.706,0.669,���쐼,5.8,��
2020/02/07,15:20,0.705,1.013,0.658,1.263,0.882,0.403,0.707,0.670,���쐼,5.8,��
2020/02/07,15:30,0.705,1.016,0.659,1.262,0.883,0.402,0.707,0.671,��,7.4,��
2020/02/07,15:40,0.703,1.016,0.660,1.262,0.883,0.401,0.707,0.671,��,4.9,��
2020/02/07,15:50,0.703,1.019,0.660,1.263,0.883,0.402,0.706,0.670,��,5.8,��
2020/02/07,16:00,0.704,1.018,0.660,1.263,0.882,0.400,0.706,0.670,��,6.3,��
2020/02/07,16:10,0.703,1.016,0.659,1.264,0.881,0.404,0.706,0.670,��,6.0,��
2020/02/07,16:20,0.704,1.016,0.658,1.262,0.881,0.403,0.707,0.670,��,4.9,��
2020/02/07,16:30,0.705,1.017,0.659,1.261,0.883,0.402,0.708,0.671,��,3.3,��
2020/02/07,16:40,0.704,1.018,0.658,1.262,0.882,0.404,0.706,0.669,��,3.4,��
2020/02/07,16:50,0.703,1.018,0.659,1.260,0.885,0.404,0.706,0.671,��,3.8,��
2020/02/07,17:00,0.705,1.018,0.661,1.262,0.883,0.403,0.706,0.670,��,3.9,��
2020/02/07,17:10,0.705,1.016,0.659,1.261,0.884,0.403,0.706,0.670,��,3.0,��
2020/02/07,17:20,0.704,1.017,0.660,1.262,0.882,0.402,0.706,0.669,��,4.9,��
2020/02/07,17:30,0.705,1.017,0.660,1.261,0.884,0.402,0.707,0.670,��,4.4,��
2020/02/07,17:40,0.703,1.017,0.660,1.263,0.883,0.402,0.705,0.671,��,2.9,��
2020/02/07,17:50,0.705,1.019,0.659,1.261,0.884,0.402,0.706,0.671,��,3.1,��
2020/02/07,18:00,0.705,1.018,0.660,1.264,0.884,0.402,0.704,0.669,��,3.0,��
2020/02/07,18:10,0.703,1.019,0.660,1.262,0.883,0.403,0.705,0.670,���쐼,3.2,��
2020/02/07,18:20,0.703,1.018,0.660,1.263,0.883,0.403,0.704,0.671,�쐼,3.1,��
2020/02/07,18:30,0.703,1.018,0.660,1.263,0.884,0.402,0.704,0.669,�쐼,3.3,��
2020/02/07,18:40,0.706,1.017,0.659,1.264,0.885,0.400,0.704,0.669,�쐼,3.1,��
2020/02/07,18:50,0.704,1.016,0.661,1.261,0.883,0.403,0.704,0.669,���쐼,2.4,��
2020/02/07,19:00,0.703,1.016,0.659,1.261,0.886,0.401,0.704,0.670,���쐼,2.5,��
2020/02/07,19:10,0.704,1.019,0.658,1.264,0.883,0.402,0.704,0.669,���쐼,3.6,��
2020/02/07,19:20,0.702,1.018,0.659,1.263,0.882,0.402,0.703,0.670,���쐼,4.2,��
2020/02/07,19:30,0.703,1.016,0.658,1.262,0.885,0.400,0.704,0.668,���쐼,5.5,��
2020/02/07,19:40,0.704,1.018,0.659,1.262,0.882,0.401,0.704,0.669,��,5.8,��
2020/02/07,19:50,0.704,1.017,0.660,1.263,0.882,0.402,0.706,0.669,���쐼,6.0,��
2020/02/07,20:00,0.702,1.019,0.659,1.262,0.884,0.403,0.704,0.669,���쐼,5.0,��
2020/02/07,20:10,0.704,1.017,0.661,1.260,0.884,0.402,0.705,0.670,��,5.2,��
2020/02/07,20:20,0.703,1.017,0.659,1.264,0.882,0.402,0.703,0.670,��,5.2,��
2020/02/07,20:30,0.702,1.018,0.659,1.263,0.884,0.401,0.703,0.671,���쐼,5.2,��
2020/02/07,20:40,0.702,1.017,0.659,1.264,0.881,0.400,0.705,0.669,���쐼,5.5,��
2020/02/07,20:50,0.704,1.019,0.660,1.263,0.883,0.402,0.704,0.669,���쐼,5.2,��
2020/02/07,21:00,0.706,1.016,0.659,1.261,0.884,0.403,0.703,0.669,���쐼,4.9,��
2020/02/07,21:10,0.703,1.015,0.658,1.264,0.882,0.402,0.704,0.671,�쐼,3.9,��
2020/02/07,21:20,0.704,1.017,0.660,1.262,0.883,0.402,0.705,0.669,��쐼,4.2,��
2020/02/07,21:30,0.704,1.018,0.658,1.261,0.883,0.401,0.704,0.669,��쐼,3.4,��
2020/02/07,21:40,0.706,1.018,0.660,1.262,0.883,0.402,0.705,0.670,��쐼,6.1,��
2020/02/07,21:50,0.702,1.018,0.659,1.260,0.885,0.402,0.706,0.669,�쐼,7.5,��
2020/02/07,22:00,0.704,1.016,0.658,1.262,0.882,0.402,0.706,0.670,��쐼,7.4,��
2020/02/07,22:10,0.703,1.016,0.661,1.264,0.885,0.402,0.706,0.670,�쐼,6.9,��
2020/02/07,22:20,0.705,1.017,0.660,1.262,0.883,0.401,0.705,0.669,�쐼,6.3,��
2020/02/07,22:30,0.704,1.018,0.660,1.260,0.883,0.402,0.705,0.670,��쐼,6.1,��
2020/02/07,22:40,0.705,1.017,0.660,1.265,0.882,0.402,0.707,0.669,��쐼,6.0,��
2020/02/07,22:50,0.703,1.018,0.660,1.263,0.881,0.402,0.706,0.669,�쐼,7.1,��
2020/02/07,23:00,0.705,1.015,0.660,1.263,0.881,0.402,0.705,0.670,��쐼,6.3,��
2020/02/07,23:10,0.703,1.017,0.660,1.263,0.882,0.401,0.706,0.672,��쐼,4.7,��
2020/02/07,23:20,0.704,1.019,0.662,1.263,0.882,0.402,0.704,0.669,��쐼,4.4,��
2020/02/07,23:30,0.705,1.018,0.659,1.263,0.883,0.402,0.703,0.668,��쐼,3.6,��
2020/02/07,23:40,0.704,1.018,0.658,1.263,0.884,0.402,0.705,0.669,��쐼,3.4,��
2020/02/07,23:50,0.705,1.018,0.660,1.262,0.883,0.401,0.705,0.670,��쐼,2.6,��
